Find Starlink 36936

NORAD ID: 68012 Int'l Des: 2026-039 Owner: SPXS Country: US Constellation: starlink operational
LEOCIRCULAR

实时位置

正在加载3D地球...

关于 Starlink 36936

正在加载描述...

即将过境

Passes for default location (London). Set your location on the main map for personalized predictions.

高度历史

Loading altitude history...

两行轨道根数

1 68012U 26039AC 26138.95669884 .00018704 00000-0 68740-3 0 9990
2 68012 43.0032 11.7641 0001348 279.3205 80.7494 15.27584465 12456
Epoch: May 18, 2026 • Age: 13 hours

当前状态

高度 487.6 km
速度 7.62 km/s
星下点 -21.50°S, 149.64°E
发射日期 Feb 27, 2026
运行时间 0.2 years
类型 internet

技术详情

分类 Payload
质量 575.00 kg
干质量 530.00 kg
总质量 575.00 kg
长度 0.30 m
直径 4.10 m
跨度 29.00 m
形状 Box + pan
制造商 SPXS
平台类型 Starlink V2MO
阶段状态 In Orbit
所有者/国家 SPXS/US

Most Searched